| time (UTC) | temp F | wind direction | speed MPH | gust MPH | rain 1hr in | rain 24hr in | rain mn in | humidity % | barometer mb |
| 20260903050040 | 80 | 184 | 0.0 | 3.0 | 0.00 | 0.29 | 0.00 | 42 | 1014.8 |
| 20260903045019 | 80 | 171 | 0.0 | 2.0 | 0.00 | 0.29 | 0.29 | 42 | 1014.8 |
| 20260903044025 | 80 | 200 | 1.0 | 2.0 | 0.00 | 0.29 | 0.29 | 42 | 1014.9 |
| 20260903043020 | 81 | 206 | 0.0 | 2.0 | 0.00 | 0.29 | 0.29 | 40 | 1015.0 |
| 20260903042020 | 81 | 192 | 1.0 | 3.0 | 0.00 | 0.29 | 0.29 | 39 | 1015.0 |
| 20260903041021 | 82 | 187 | 2.0 | 4.0 | 0.00 | 0.29 | 0.29 | 39 | 1014.9 |
| 20260903040043 | 83 | 185 | 1.0 | 3.0 | 0.00 | 0.29 | 0.29 | 39 | 1015.0 |
| 20260903035023 | 83 | 192 | 1.0 | 4.0 | 0.00 | 0.29 | 0.29 | 39 | 1015.0 |
| 20260903034021 | 84 | 174 | 0.0 | 2.0 | 0.00 | 0.29 | 0.29 | 36 | 1014.9 |
| 20260903033044 | 84 | 180 | 1.0 | 4.0 | 0.00 | 0.29 | 0.29 | 36 | 1014.8 |
| 20260903032022 | 84 | 178 | 2.0 | 4.0 | 0.00 | 0.29 | 0.29 | 37 | 1014.7 |
| 20260903031025 | 85 | 187 | 1.0 | 4.0 | 0.00 | 0.29 | 0.29 | 36 | 1014.6 |
| 20260903030023 | 85 | 180 | 0.0 | 3.0 | 0.00 | 0.29 | 0.29 | 35 | 1014.5 |
| 20260903025046 | 85 | 178 | 2.0 | 4.0 | 0.00 | 0.29 | 0.29 | 35 | 1014.4 |
| 20260903024024 | 86 | 182 | 1.0 | 4.0 | 0.00 | 0.29 | 0.29 | 34 | 1014.3 |
| 20260903023018 | 86 | 183 | 1.0 | 3.0 | 0.00 | 0.29 | 0.29 | 34 | 1014.2 |
| 20260903022025 | 87 | 176 | 2.0 | 4.0 | 0.00 | 0.29 | 0.29 | 34 | 1014.2 |
| 20260903021019 | 88 | 195 | 0.0 | 3.0 | 0.00 | 0.29 | 0.29 | 33 | 1014.1 |
| 20260903020019 | 88 | 187 | 1.0 | 3.0 | 0.00 | 0.29 | 0.29 | 33 | 1014.0 |
| 20260903015020 | 89 | 189 | 1.0 | 2.0 | 0.00 | 0.29 | 0.29 | 32 | 1014.0 |
| 20260903014020 | 89 | 180 | 2.0 | 4.0 | 0.00 | 0.29 | 0.29 | 32 | 1013.9 |
| 20260903013019 | 90 | 185 | 1.0 | 3.0 | 0.00 | 0.29 | 0.29 | 32 | 1013.8 |
| 20260903012021 | 91 | 182 | 2.0 | 4.0 | 0.00 | 0.29 | 0.29 | 31 | 1013.8 |
| 20260903011022 | 92 | 185 | 1.0 | 5.0 | 0.00 | 0.29 | 0.29 | 30 | 1013.8 |
| 20260903010020 | 93 | 182 | 1.0 | 5.0 | 0.00 | 0.29 | 0.29 | 29 | 1013.7 |
| 20260903005022 | 95 | 178 | 1.0 | 5.0 | 0.00 | 0.29 | 0.29 | 27 | 1013.5 |
| 20260903004021 | 97 | 191 | 1.0 | 4.0 | 0.00 | 0.29 | 0.29 | 26 | 1013.6 |
| 20260903003025 | 97 | 193 | 0.0 | 3.0 | 0.00 | 0.29 | 0.29 | 25 | 1013.5 |
| 20260903002023 | 98 | 188 | 2.0 | 5.0 | 0.00 | 0.29 | 0.29 | 25 | 1013.6 |
| 20260903001022 | 99 | 188 | 1.0 | 4.0 | 0.00 | 0.29 | 0.29 | 24 | 1013.5 |
| 20260903000047 | 99 | 198 | 1.0 | 6.0 | 0.01 | 0.30 | 0.29 | 24 | 1013.5 |
| 20260902235022 | 98 | 186 | 2.0 | 6.0 | 0.01 | 0.30 | 0.29 | 24 | 1013.5 |
| 20260902234045 | 98 | 191 | 2.0 | 7.0 | 0.01 | 0.30 | 0.29 | 24 | 1013.6 |
| 20260902233021 | 98 | 142 | 1.0 | 4.0 | 0.01 | 0.30 | 0.29 | 24 | 1013.6 |
| 20260902232046 | 99 | 185 | 2.0 | 5.0 | 0.01 | 0.30 | 0.29 | 23 | 1013.7 |
| 20260902231019 | 99 | 191 | 3.0 | 8.0 | 0.01 | 0.30 | 0.29 | 24 | 1013.7 |
| 20260902230021 | 99 | 183 | 2.0 | 8.0 | 0.00 | 0.31 | 0.29 | 23 | 1013.7 |
| 20260902225019 | 100 | 181 | 2.0 | 6.0 | 0.00 | 0.31 | 0.28 | 23 | 1013.7 |
| 20260902224024 | 101 | 159 | 2.0 | 6.0 | 0.01 | 0.31 | 0.28 | 22 | 1013.8 |
| 20260902223019 | 100 | 179 | 1.0 | 6.0 | 0.01 | 0.32 | 0.28 | 23 | 1013.8 |
| 20260902222023 | 100 | 195 | 3.0 | 8.0 | 0.01 | 0.33 | 0.28 | 23 | 1013.9 |
| 20260902221019 | 99 | 185 | 2.0 | 8.0 | 0.01 | 0.33 | 0.28 | 23 | 1014.0 |
| 20260902220021 | 100 | 128 | 2.0 | 6.0 | 0.01 | 0.35 | 0.28 | 23 | 1013.9 |
| 20260902215025 | 100 | 154 | 2.0 | 7.0 | 0.01 | 0.35 | 0.28 | 23 | 1014.1 |
| 20260902214020 | 100 | 175 | 3.0 | 8.0 | 0.01 | 0.35 | 0.28 | 23 | 1014.2 |
| 20260902213026 | 100 | 162 | 1.0 | 7.0 | 0.01 | 0.36 | 0.28 | 23 | 1014.3 |
| 20260902212021 | 100 | 199 | 2.0 | 7.0 | 0.01 | 0.36 | 0.28 | 24 | 1014.4 |
| 20260902211024 | 100 | 174 | 2.0 | 10.0 | 0.01 | 0.37 | 0.27 | 23 | 1014.5 |
| 20260902210022 | 99 | 189 | 4.0 | 10.0 | 0.01 | 0.38 | 0.27 | 24 | 1014.7 |
| 20260902205041 | 99 | 195 | 2.0 | 9.0 | 0.01 | 0.38 | 0.27 | 24 | 1014.8 |
| 20260902204025 | 99 | 115 | 2.0 | 6.0 | 0.01 | 0.40 | 0.26 | 24 | 1014.9 |
| 20260902203028 | 99 | 149 | 1.0 | 5.0 | 0.02 | 0.40 | 0.26 | 24 | 1015.1 |
| 20260902202022 | 98 | 163 | 2.0 | 6.0 | 0.02 | 0.41 | 0.26 | 25 | 1015.2 |
| 20260902201043 | 98 | 166 | 1.0 | 4.0 | 0.03 | 0.41 | 0.26 | 25 | 1015.4 |
| 20260902200041 | 98 | 184 | 4.0 | 9.0 | 0.03 | 0.42 | 0.26 | 25 | 1015.5 |
| 20260902195020 | 99 | 152 | 2.0 | 5.0 | 0.02 | 0.42 | 0.26 | 25 | 1015.7 |
| 20260902194022 | 99 | 197 | 3.0 | 9.0 | 0.03 | 0.42 | 0.26 | 24 | 1015.9 |
| 20260902193019 | 98 | 226 | 3.0 | 12.0 | 0.03 | 0.42 | 0.25 | 26 | 1015.9 |
| 20260902192040 | 98 | 210 | 3.0 | 7.0 | 0.02 | 0.41 | 0.24 | 26 | 1016.2 |
| 20260902191020 | 98 | 187 | 4.0 | 8.0 | 0.02 | 0.43 | 0.24 | 26 | 1016.3 |
| 20260902190039 | 98 | 191 | 4.0 | 10.0 | 0.03 | 0.43 | 0.23 | 26 | 1016.4 |
| 20260902185022 | 97 | 212 | 4.0 | 10.0 | 0.03 | 0.44 | 0.23 | 28 | 1016.6 |
| 20260902184022 | 97 | 214 | 4.0 | 8.0 | 0.03 | 0.43 | 0.23 | 27 | 1016.7 |
| 20260902183021 | 96 | 201 | 3.0 | 6.0 | 0.04 | 0.44 | 0.22 | 27 | 1016.9 |
| 20260902182019 | 96 | 232 | 4.0 | 8.0 | 0.04 | 0.44 | 0.22 | 27 | 1017.1 |
| 20260902181021 | 96 | 181 | 4.0 | 10.0 | 0.05 | 0.44 | 0.22 | 28 | 1017.3 |
| 20260902180022 | 95 | 198 | 4.0 | 8.0 | 0.05 | 0.44 | 0.21 | 30 | 1017.5 |
| 20260902175020 | 95 | 189 | 4.0 | 8.0 | 0.05 | 0.44 | 0.20 | 30 | 1017.6 |
| 20260902174023 | 94 | 193 | 4.0 | 8.0 | 0.05 | 0.44 | 0.19 | 31 | 1017.8 |
| 20260902173103 | 94 | 192 | 5.0 | 10.0 | 0.05 | 0.43 | 0.19 | 32 | 1017.9 |
| 20260902172028 | 93 | 186 | 5.0 | 9.0 | 0.05 | 0.44 | 0.18 | 33 | 1018.0 |
| 20260902171042 | 93 | 190 | 4.0 | 9.0 | 0.04 | 0.43 | 0.17 | 33 | 1018.1 |
| 20260902170021 | 92 | 190 | 5.0 | 9.0 | 0.04 | 0.42 | 0.16 | 35 | 1018.1 |
| 20260902165020 | 92 | 185 | 4.0 | 9.0 | 0.04 | 0.42 | 0.15 | 35 | 1018.2 |
| 20260902164019 | 91 | 202 | 4.0 | 8.0 | 0.04 | 0.42 | 0.14 | 36 | 1018.2 |
| 20260902163021 | 90 | 196 | 4.0 | 10.0 | 0.04 | 0.42 | 0.14 | 37 | 1018.2 |
| 20260902162021 | 90 | 196 | 4.0 | 10.0 | 0.05 | 0.42 | 0.13 | 37 | 1018.2 |
| 20260902161019 | 89 | 196 | 5.0 | 9.0 | 0.06 | 0.42 | 0.12 | 38 | 1018.2 |
| 20260902160019 | 88 | 201 | 4.0 | 8.0 | 0.07 | 0.43 | 0.12 | 39 | 1018.2 |
| 20260902155019 | 87 | 206 | 4.0 | 10.0 | 0.07 | 0.43 | 0.11 | 40 | 1018.1 |
| 20260902154022 | 86 | 224 | 4.0 | 11.0 | 0.09 | 0.43 | 0.10 | 41 | 1018.2 |
| 20260902153020 | 85 | 194 | 5.0 | 11.0 | 0.09 | 0.43 | 0.10 | 42 | 1018.2 |
| 20260902152020 | 85 | 199 | 5.0 | 10.0 | 0.08 | 0.42 | 0.08 | 43 | 1018.2 |
| 20260902151019 | 84 | 195 | 6.0 | 11.0 | 0.07 | 0.41 | 0.07 | 44 | 1018.2 |
| 20260902150043 | 83 | 206 | 4.0 | 9.0 | 0.05 | 0.39 | 0.05 | 45 | 1018.2 |
| 20260902145020 | 83 | 200 | 4.0 | 11.0 | 0.03 | 0.39 | 0.03 | 46 | 1018.2 |
| 20260902144020 | 82 | 218 | 4.0 | 9.0 | 0.02 | 0.38 | 0.02 | 47 | 1018.1 |
| 20260902143022 | 81 | 206 | 4.0 | 9.0 | 0.01 | 0.38 | 0.01 | 48 | 1018.1 |
| 20260902142021 | 79 | 203 | 3.0 | 6.0 | 0.00 | 0.37 | 0.00 | 50 | 1018.1 |
| 20260902141022 | 78 | 188 | 4.0 | 8.0 | 0.00 | 0.37 | 0.00 | 52 | 1018.0 |
| 20260902140023 | 76 | 186 | 2.0 | 6.0 | 0.00 | 0.37 | 0.00 | 54 | 1018.0 |
| 20260902135021 | 75 | 200 | 1.0 | 4.0 | 0.00 | 0.37 | 0.00 | 56 | 1018.0 |
| 20260902134025 | 73 | 243 | 1.0 | 4.0 | 0.00 | 0.37 | 0.00 | 59 | 1018.0 |
| 20260902133026 | 73 | 243 | 1.0 | 4.0 | 0.00 | 0.37 | 0.00 | 59 | 1017.9 |
| 20260902132022 | 73 | 250 | 3.0 | 5.0 | 0.00 | 0.37 | 0.00 | 60 | 1017.8 |
| 20260902131042 | 73 | 224 | 2.0 | 7.0 | 0.00 | 0.37 | 0.00 | 59 | 1017.6 |
| 20260902130021 | 72 | 202 | 2.0 | 4.0 | 0.00 | 0.37 | 0.00 | 58 | 1017.4 |
| 20260902125020 | 71 | 199 | 1.0 | 4.0 | 0.00 | 0.37 | 0.00 | 60 | 1017.3 |
| 20260902124022 | 71 | 189 | 2.0 | 4.0 | 0.00 | 0.37 | 0.00 | 60 | 1017.2 |
| 20260902123022 | 70 | 189 | 2.0 | 4.0 | 0.00 | 0.37 | 0.00 | 61 | 1017.2 |
| 20260902122021 | 71 | 190 | 1.0 | 3.0 | 0.00 | 0.37 | 0.00 | 61 | 1017.2 |
| 20260902121022 | 71 | 195 | 2.0 | 4.0 | 0.00 | 0.37 | 0.00 | 60 | 1017.2 |
| 20260902120021 | 70 | 201 | 2.0 | 3.0 | 0.00 | 0.37 | 0.00 | 62 | 1017.2 |
| 20260902115023 | 71 | 202 | 0.0 | 2.0 | 0.00 | 0.37 | 0.00 | 60 | 1017.2 |
| 20260902114019 | 72 | 208 | 1.0 | 3.0 | 0.00 | 0.37 | 0.00 | 58 | 1017.2 |
| 20260902113020 | 72 | 207 | 2.0 | 8.0 | 0.00 | 0.37 | 0.00 | 58 | 1017.2 |
| 20260902112023 | 72 | 197 | 2.0 | 4.0 | 0.00 | 0.37 | 0.00 | 58 | 1017.2 |
| 20260902111040 | 72 | 182 | 2.0 | 4.0 | 0.00 | 0.37 | 0.00 | 58 | 1017.1 |
| 20260902110023 | 72 | 202 | 1.0 | 6.0 | 0.00 | 0.37 | 0.00 | 57 | 1017.2 |
| 20260902105021 | 72 | 195 | 3.0 | 4.0 | 0.00 | 0.37 | 0.00 | 58 | 1017.2 |
| 20260902104021 | 72 | 195 | 1.0 | 4.0 | 0.00 | 0.37 | 0.00 | 57 | 1017.2 |
| 20260902103025 | 73 | 196 | 2.0 | 5.0 | 0.00 | 0.37 | 0.00 | 56 | 1017.3 |
| 20260902102026 | 73 | 197 | 2.0 | 4.0 | 0.00 | 0.37 | 0.00 | 55 | 1017.2 |
| 20260902101025 | 74 | 191 | 2.0 | 5.0 | 0.00 | 0.37 | 0.00 | 54 | 1017.2 |
| 20260902100022 | 74 | 190 | 2.0 | 4.0 | 0.00 | 0.37 | 0.00 | 53 | 1017.3 |
| 20260902095024 | 74 | 185 | 2.0 | 5.0 | 0.00 | 0.37 | 0.00 | 53 | 1017.3 |
| 20260902094018 | 74 | 176 | 3.0 | 6.0 | 0.00 | 0.37 | 0.00 | 53 | 1017.1 |
| 20260902093020 | 75 | 176 | 2.0 | 4.0 | 0.00 | 0.37 | 0.00 | 53 | 1017.2 |
| 20260902092023 | 75 | 185 | 2.0 | 5.0 | 0.00 | 0.37 | 0.00 | 52 | 1017.3 |
| 20260902091043 | 75 | 176 | 2.0 | 4.0 | 0.00 | 0.37 | 0.00 | 52 | 1017.3 |
| 20260902090027 | 75 | 181 | 2.0 | 4.0 | 0.00 | 0.37 | 0.00 | 51 | 1017.4 |
| 20260902085040 | 76 | 182 | 2.0 | 5.0 | 0.00 | 0.37 | 0.00 | 50 | 1017.3 |
| 20260902084022 | 76 | 180 | 2.0 | 4.0 | 0.00 | 0.37 | 0.00 | 50 | 1017.3 |
| 20260902083031 | 76 | 179 | 1.0 | 4.0 | 0.00 | 0.37 | 0.00 | 50 | 1017.2 |
| 20260902082022 | 76 | 167 | 2.0 | 4.0 | 0.00 | 0.37 | 0.00 | 50 | 1017.3 |
| 20260902081022 | 76 | 173 | 2.0 | 5.0 | 0.00 | 0.37 | 0.00 | 49 | 1017.3 |
| 20260902080041 | 76 | 164 | 2.0 | 5.0 | 0.00 | 0.37 | 0.00 | 50 | 1017.3 |
| 20260902075021 | 76 | 170 | 1.0 | 4.0 | 0.00 | 0.37 | 0.00 | 50 | 1017.4 |
| 20260902074021 | 77 | 172 | 1.0 | 5.0 | 0.00 | 0.37 | 0.00 | 49 | 1017.3 |
| 20260902073020 | 76 | 167 | 2.0 | 4.0 | 0.00 | 0.37 | 0.00 | 50 | 1017.3 |
| 20260902072024 | 76 | 169 | 1.0 | 3.0 | 0.00 | 0.37 | 0.00 | 50 | 1017.2 |
| 20260902071021 | 76 | 168 | 0.0 | 3.0 | 0.00 | 0.37 | 0.00 | 50 | 1017.2 |
| 20260902070025 | 76 | 172 | 1.0 | 4.0 | 0.00 | 0.37 | 0.00 | 50 | 1017.2 |
| 20260902065042 | 76 | 165 | 1.0 | 3.0 | 0.00 | 0.37 | 0.00 | 49 | 1017.2 |
| 20260902064043 | 77 | 174 | 1.0 | 3.0 | 0.00 | 0.37 | 0.00 | 49 | 1017.2 |
| 20260902063039 | 77 | 170 | 1.0 | 3.0 | 0.00 | 0.37 | 0.00 | 48 | 1017.3 |
| 20260902062019 | 77 | 181 | 1.0 | 3.0 | 0.00 | 0.37 | 0.00 | 48 | 1017.3 |
| 20260902061019 | 78 | 171 | 0.0 | 3.0 | 0.00 | 0.37 | 0.00 | 47 | 1017.3 |
| 20260902060021 | 78 | 169 | 1.0 | 4.0 | 0.00 | 0.37 | 0.00 | 46 | 1017.2 |
| 20260902055019 | 78 | 184 | 0.0 | 3.0 | 0.00 | 0.37 | 0.00 | 46 | 1017.1 |
| 20260902054045 | 79 | 153 | 0.0 | 3.0 | 0.00 | 0.37 | 0.00 | 45 | 1017.0 |
| 20260902053020 | 79 | 175 | 0.0 | 3.0 | 0.00 | 0.37 | 0.00 | 44 | 1017.0 |
| 20260902052023 | 79 | 147 | 1.0 | 4.0 | 0.00 | 0.37 | 0.00 | 44 | 1017.0 |
| 20260902051019 | 79 | 130 | 0.0 | 2.0 | 0.00 | 0.37 | 0.00 | 45 | 1017.0 |